[[{"header":{"parameterUnit":"m.s-1","parameterCategory":1,"la1":30.2991,"la2":30.254,"lo1":-89.0895,"lo2":-89.0444,"dy":0.0017,"dx":0.0017,"nx":28,"ny":28,"refTime":"2025-02-25T09:00:00:Z","depth":0,"parameterNumber":2,"parameterNumberName":"U-component_of_WINDS"},"data":[0,0,0,0,0,0,0,0,0,0,0,0,0,0,0,0,0,0,0,0,0,0,0,0,0,0,0,0,0,0,0,0,0,0,0,0,0,0,0,0,0,0,0,0,0,0,0,0,0,0,0,0,0,0,0,0,0,0,-0.3361,-0.3361,0,-0.338,-0.338,-0.3381,-0.3369,-0.3368,-0.3368,-0.3367,-0.3388,-0.3389,-0.339,0,0,0,0,0,0,0,0,0,0,0,0,0,-0.3316,-0.3317,-0.3361,-0.3361,-0.3361,-0.338,-0.338,-0.3381,-0.3369,-0.3368,-0.3368,-0.3367,-0.3388,-0.3389,-0.339,0,0,0,0,0,0,0,0,0,0,0,0,0,-0.3335,-0.3317,-0.3361,-0.3358,-0.3358,-0.338,-0.338,-0.3381,-0.3369,-0.3368,-0.3368,-0.3367,-0.3387,-0.3389,-0.339,-0.3417,0,0,-0.3395,-0.3396,0,0,0,0,0,0,0,0,-0.3334,-0.3337,-0.3358,-0.3358,-0.3358,-0.3371,-0.3372,-0.3393,-0.3369,-0.3365,-0.3367,-0.3366,-0.3383,-0.3385,-0.3391,-0.3418,-0.3419,-0.3395,-0.3396,-0.3397,-0.3398,0,0,0,0,0,0,0,-0.3333,-0.3336,-0.3368,-0.3358,-0.3358,-0.3356,-0.3358,-0.3376,-0.3379,-0.3365,-0.3364,-0.3367,-0.3383,-0.3389,-0.3391,-0.3419,-0.3395,-0.3397,-0.3398,-0.3398,-0.3471,-0.3472,0,0,0,0,0,0,-0.3331,-0.3335,-0.3368,-0.3369,-0.3344,-0.3358,-0.336,-0.3368,-0.3378,-0.3379,-0.3368,-0.3366,-0.3387,-0.3389,-0.3392,-0.3425,-0.3397,-0.3399,-0.3399,-0.347,-0.3471,-0.3472,0,0,0,0,0,0,-0.3331,-0.3334,-0.3367,-0.3352,-0.3356,-0.3359,-0.3369,-0.3369,-0.3375,-0.338,-0.3381,-0.3373,-0.3386,-0.3389,-0.3411,-0.3425,-0.3399,-0.3401,-0.3469,-0.347,-0.3472,-0.349,0,0,0,0,0,0,-0.3329,-0.3334,-0.3344,-0.3352,-0.3357,-0.3386,-0.3369,-0.337,-0.3377,-0.3376,-0.3385,-0.3386,-0.3386,-0.3409,-0.3413,-0.3427,-0.3402,-0.3468,-0.347,-0.3471,-0.3488,-0.3492,-0.3495,0,0,0,0,0,-0.3328,-0.3348,-0.3344,-0.3348,-0.3369,-0.3386,-0.3389,-0.3388,-0.3378,-0.3389,-0.3392,-0.3386,-0.3423,-0.3411,-0.3415,-0.343,-0.3467,-0.3469,-0.3471,-0.3487,-0.3491,-0.3495,0,0,0,0,0,0,-0.3342,-0.3349,-0.3345,-0.3369,-0.3377,-0.3384,-0.3397,-0.3393,-0.3404,-0.3402,-0.3401,-0.3403,-0.3426,-0.343,-0.3417,-0.3457,-0.3443,-0.3447,-0.3454,-0.3458,-0.3461,-0.346,-0.3403,0,0,0,0,0,-0.3347,-0.3361,-0.3367,-0.3387,-0.3391,-0.3394,-0.3401,-0.34,-0.3409,-0.3412,-0.3417,-0.3426,-0.344,-0.3449,-0.3462,-0.3489,-0.3491,-0.3501,-0.3504,-0.3507,-0.351,-0.3526,-0.3531,-0.3479,-0.3479,-0.3479,0,0,-0.3359,-0.3365,-0.3374,-0.339,-0.3396,-0.3411,-0.3397,-0.3412,-0.3424,-0.3415,-0.3436,-0.344,-0.345,-0.3474,-0.3486,-0.3479,-0.3525,-0.351,-0.3512,-0.3514,-0.3529,-0.3534,-0.3538,-0.3481,-0.3481,-0.348,0,0,-0.3389,-0.3394,-0.3413,-0.3419,-0.3429,-0.3431,-0.3435,-0.3443,-0.3446,-0.3467,-0.3461,-0.3474,-0.3498,-0.3505,-0.3513,-0.3547,-0.3541,-0.3551,-0.3569,-0.3584,-0.3588,-0.3592,-0.3605,-0.361,-0.3553,-0.3554,-0.3554,0,-0.3403,-0.3424,-0.3422,-0.3439,-0.3447,-0.3439,-0.3458,-0.3465,-0.3479,-0.3485,-0.3477,-0.3507,-0.3513,-0.354,-0.3548,-0.3554,-0.356,-0.355,-0.3588,-0.3591,-0.3595,-0.3607,-0.3612,-0.3555,-0.3555,-0.3554,-0.3554,0,-0.3442,-0.3457,-0.347,-0.3484,-0.3493,-0.3511,-0.3512,-0.3522,-0.352,-0.3522,-0.3545,-0.3552,-0.3567,-0.3573,-0.3571,-0.36,-0.3596,-0.3588,-0.3574,-0.3601,-0.3613,-0.3618,-0.3556,-0.3556,-0.3556,-0.3555,0,0,-0.3481,-0.3493,-0.3499,-0.3505,-0.3516,-0.3528,-0.3545,-0.356,-0.3569,-0.3579,-0.3594,-0.3615,-0.3608,-0.3616,-0.3615,-0.3628,-0.3656,-0.3619,-0.3619,-0.3626,-0.369,-0.3697,-0.3702,-0.3653,-0.3654,-0.3654,-0.369,0,-0.3512,-0.3543,-0.3542,-0.3571,-0.3586,-0.3579,-0.3595,-0.3603,-0.3607,-0.362,-0.3623,-0.3638,-0.3628,-0.3633,-0.3645,-0.365,-0.3669,-0.3647,-0.3668,-0.3669,-0.3667,-0.3708,-0.3715,-0.3748,-0.3694,-0.3695,-0.3696,0,-0.3553,-0.3564,-0.3595,-0.3604,-0.361,-0.3624,-0.3638,-0.365,-0.3661,-0.3662,-0.3672,-0.3669,-0.3688,-0.3673,-0.37,-0.3685,-0.3693,-0.3697,-0.3698,-0.3701,-0.3684,-0.3713,-0.3758,-0.3764,-0.3703,-0.3702,-0.3702,0,-0.358,-0.3603,-0.3624,-0.363,-0.3641,-0.3651,-0.3657,-0.3666,-0.3675,-0.3687,-0.3693,-0.3707,-0.3715,-0.3727,-0.3728,-0.3717,-0.3756,-0.3741,-0.3758,-0.3758,-0.3767,-0.3767,-0.3816,-0.3771,-0.3771,-0.3771,-0.3771,0,-0.3615,-0.3635,-0.3637,-0.365,-0.3672,-0.3671,-0.3692,-0.3697,-0.3705,-0.372,-0.3715,-0.3729,-0.3729,-0.3744,-0.3745,-0.3768,-0.3771,-0.3774,-0.3774,-0.3775,-0.3775,-0.3781,-0.3779,-0.3772,-0.3772,-0.3772,-0.3772,0,-0.365,-0.3651,-0.3675,-0.3683,-0.3686,-0.3702,-0.371,-0.3723,-0.3726,-0.3745,-0.3749,-0.3754,-0.3771,-0.3773,-0.3793,-0.3794,-0.3821,-0.3819,-0.3818,-0.3818,-0.3836,-0.3835,-0.3891,-0.3899,-0.3849,-0.3849,-0.3849,0,-0.3673,-0.3687,-0.3698,-0.3707,-0.3713,-0.3728,-0.3738,-0.3737,-0.3748,-0.3761,-0.3773,-0.3789,-0.3802,-0.383,-0.3836,-0.3851,-0.385,-0.3868,-0.3852,-0.3853,-0.3851,-0.3851,-0.3853,-0.3872,-0.3872,-0.3873,-0.3873,0,-0.3714,-0.3714,-0.3728,-0.3742,-0.3753,-0.3764,-0.3775,-0.3783,-0.3784,-0.3796,-0.3814,-0.3824,-0.3844,-0.3861,-0.3877,-0.3883,-0.3879,-0.3878,-0.3883,-0.3885,-0.3884,-0.3886,-0.3828,-0.3877,-0.3877,-0.3876,-0.3876,-0.3876,-0.3744,-0.3757,-0.3767,-0.3783,-0.3791,-0.3801,-0.3814,-0.3818,-0.3833,-0.3849,-0.3848,-0.3868,-0.3879,-0.3899,-0.3906,-0.3922,-0.3916,-0.3923,-0.3925,-0.3927,-0.393,-0.3881,-0.3925,-0.3925,-0.3924,-0.3924,-0.3924,0,-0.3786,-0.3792,-0.3807,-0.3822,-0.3834,-0.3828,-0.384,-0.3851,-0.3868,-0.3878,-0.3892,-0.3912,-0.3929,-0.3936,-0.3952,-0.3964,-0.3962,-0.3968,-0.3968,-0.397,-0.3933,-0.3928,-0.3969,-0.3969,-0.3969,-0.3969,-0.3969,-0.3969,-0.381,-0.3832,-0.3834,-0.3861,-0.3867,-0.3886,-0.3893,-0.3903,-0.3911,-0.3934,-0.3948,-0.3952,-0.3961,-0.3978,-0.3994,-0.3995,-0.4002,-0.4009,-0.401,-0.3976,-0.3972,-0.3968,-0.3963,-0.401,-0.401,-0.4045,-0.4046,-0.4046]},{"header":{"parameterUnit":"m.s-1","parameterCategory":1,"la1":30.2991,"la2":30.254,"lo1":-89.0895,"lo2":-89.0444,"dy":0.0017,"dx":0.0017,"nx":28,"ny":28,"refTime":"2025-02-25T09:00:00:Z","depth":0,"parameterNumber":3,"parameterNumberName":"V-component_of_WINDS"},"data":[0,0,0,0,0,0,0,0,0,0,0,0,0,0,0,0,0,0,0,0,0,0,0,0,0,0,0,0,0,0,0,0,0,0,0,0,0,0,0,0,0,0,0,0,0,0,0,0,0,0,0,0,0,0,0,0,0,0,1.6079,1.6079,0,1.6096,1.6097,1.6097,1.6098,1.6098,1.6098,1.6097,1.6114,1.6114,1.6115,0,0,0,0,0,0,0,0,0,0,0,0,0,1.6046,1.6047,1.6079,1.6079,1.6079,1.6096,1.6097,1.6097,1.6098,1.6098,1.6097,1.6097,1.6113,1.6114,1.6115,0,0,0,0,0,0,0,0,0,0,0,0,0,1.6062,1.6047,1.6079,1.6082,1.6083,1.6096,1.6097,1.6097,1.6098,1.6098,1.6097,1.6097,1.6113,1.6114,1.6115,1.6126,0,0,1.6118,1.6118,0,0,0,0,0,0,0,0,1.6061,1.6063,1.6081,1.6082,1.6082,1.6095,1.6091,1.6107,1.6098,1.6092,1.6097,1.6097,1.6107,1.6109,1.6113,1.6127,1.6128,1.6118,1.6118,1.6119,1.6119,0,0,0,0,0,0,0,1.606,1.6062,1.6086,1.6082,1.6082,1.6082,1.6084,1.6094,1.6101,1.6093,1.6093,1.6095,1.6108,1.6112,1.6113,1.6128,1.6118,1.6119,1.6119,1.6119,1.6154,1.6154,0,0,0,0,0,0,1.6058,1.6061,1.6085,1.6086,1.6071,1.6083,1.6085,1.6091,1.6101,1.6102,1.6095,1.6095,1.611,1.6112,1.6114,1.6128,1.6119,1.612,1.612,1.6153,1.6154,1.6154,0,0,0,0,0,0,1.6058,1.606,1.6085,1.6074,1.6077,1.6084,1.6091,1.6092,1.6096,1.6103,1.6104,1.6098,1.611,1.6112,1.6123,1.6129,1.612,1.6121,1.6153,1.6153,1.6154,1.6157,0,0,0,0,0,0,1.6057,1.606,1.6065,1.6074,1.6078,1.6094,1.6091,1.6092,1.6097,1.6097,1.6106,1.6107,1.611,1.6122,1.6124,1.613,1.6121,1.6152,1.6153,1.6154,1.6157,1.6158,1.6159,0,0,0,0,0,1.6055,1.6064,1.6065,1.6068,1.6083,1.6095,1.6097,1.61,1.6098,1.6102,1.6107,1.6107,1.6128,1.6123,1.6126,1.6132,1.6152,1.6153,1.6154,1.6156,1.6158,1.6159,0,0,0,0,0,0,1.6054,1.6065,1.6066,1.6078,1.6086,1.6095,1.6101,1.6102,1.6109,1.6109,1.6113,1.6115,1.6126,1.613,1.6124,1.6144,1.614,1.6141,1.6141,1.6142,1.6143,1.6142,1.6122,0,0,0,0,0,1.6056,1.6064,1.6073,1.6083,1.6087,1.6093,1.6098,1.6101,1.6108,1.6111,1.6117,1.6124,1.6132,1.6137,1.6145,1.6157,1.616,1.6163,1.6164,1.6165,1.6166,1.6174,1.6175,1.6157,1.6157,1.6157,0,0,1.6058,1.6065,1.607,1.6083,1.6089,1.6098,1.6096,1.6105,1.6111,1.6112,1.6124,1.6128,1.6136,1.6148,1.6154,1.6152,1.6172,1.6166,1.6166,1.6167,1.6175,1.6177,1.6178,1.6157,1.6157,1.6157,0,0,1.6067,1.6073,1.6083,1.6089,1.6099,1.6103,1.6105,1.6115,1.6118,1.6129,1.6131,1.6138,1.6152,1.6158,1.6163,1.6176,1.6177,1.6179,1.6184,1.6192,1.6193,1.6195,1.62,1.6202,1.618,1.618,1.618,0,1.6069,1.6082,1.6087,1.6097,1.6103,1.6105,1.6115,1.612,1.6132,1.6136,1.6134,1.6152,1.6158,1.6172,1.6175,1.6179,1.6182,1.6178,1.6193,1.6194,1.6196,1.6201,1.6203,1.618,1.618,1.618,1.618,0,1.6085,1.6094,1.6101,1.6113,1.6119,1.6129,1.6135,1.6141,1.6143,1.6148,1.616,1.6167,1.6177,1.618,1.6182,1.6195,1.6194,1.6192,1.6188,1.6198,1.6203,1.6205,1.6181,1.618,1.618,1.618,0,0,1.6092,1.6108,1.611,1.6117,1.6128,1.6135,1.6145,1.6156,1.6161,1.6169,1.6178,1.619,1.619,1.6195,1.6198,1.6204,1.6215,1.6202,1.6202,1.6205,1.6231,1.6232,1.6234,1.6215,1.6216,1.6216,1.623,0,1.6103,1.6122,1.6127,1.6142,1.6152,1.6155,1.6163,1.6171,1.6176,1.6185,1.619,1.6199,1.6197,1.62,1.6207,1.6212,1.6221,1.6211,1.6224,1.6224,1.6222,1.6237,1.6238,1.6251,1.6232,1.6233,1.6233,0,1.6118,1.6128,1.6145,1.6156,1.616,1.6168,1.6179,1.6187,1.6196,1.6199,1.6206,1.6208,1.6219,1.6215,1.623,1.6223,1.6229,1.6232,1.6233,1.6234,1.6229,1.6239,1.6255,1.6258,1.6236,1.6236,1.6235,0,1.6123,1.614,1.6153,1.6158,1.6171,1.6177,1.6182,1.6192,1.6198,1.6207,1.6212,1.6222,1.6227,1.6235,1.624,1.6236,1.6255,1.6251,1.6258,1.6258,1.6262,1.6261,1.628,1.6265,1.6265,1.6264,1.6264,0,1.6135,1.6145,1.6156,1.6163,1.6175,1.6181,1.6193,1.6198,1.6207,1.6216,1.6218,1.6227,1.6233,1.6242,1.6246,1.6258,1.626,1.6263,1.6264,1.6263,1.6263,1.6267,1.6266,1.6265,1.6265,1.6265,1.6265,0,1.6142,1.615,1.6164,1.6176,1.6179,1.6187,1.6198,1.6205,1.6211,1.6222,1.6225,1.6234,1.6245,1.6251,1.6264,1.6267,1.6281,1.6281,1.6278,1.6278,1.6286,1.6285,1.6307,1.6311,1.6293,1.6293,1.6293,0,1.6149,1.6158,1.6171,1.6178,1.6184,1.6194,1.6202,1.6208,1.6215,1.6227,1.6234,1.6245,1.6255,1.6272,1.6279,1.629,1.629,1.6298,1.6292,1.6291,1.6291,1.6291,1.6292,1.6298,1.6299,1.6299,1.6299,0,1.6162,1.6165,1.6176,1.6188,1.6196,1.6206,1.6215,1.622,1.6228,1.6236,1.6248,1.6256,1.6271,1.6282,1.6293,1.6299,1.63,1.6301,1.6303,1.6302,1.6301,1.6302,1.6281,1.63,1.63,1.63,1.63,1.63,1.6169,1.6177,1.6189,1.62,1.6209,1.6218,1.6226,1.6233,1.6243,1.6256,1.6259,1.6272,1.6282,1.6298,1.6304,1.6314,1.6313,1.6316,1.6317,1.6318,1.6318,1.6299,1.6316,1.6316,1.6316,1.6316,1.6316,0,1.6182,1.619,1.6201,1.6215,1.6224,1.6226,1.6237,1.6244,1.6256,1.6265,1.6275,1.629,1.6301,1.631,1.6321,1.6328,1.6329,1.6331,1.633,1.6332,1.6319,1.6316,1.633,1.633,1.633,1.633,1.633,1.633,1.619,1.6204,1.6209,1.6228,1.6235,1.6248,1.6255,1.6263,1.6271,1.6287,1.6297,1.6303,1.6312,1.6325,1.6336,1.6338,1.6342,1.6344,1.6347,1.6334,1.6333,1.6331,1.6329,1.6345,1.6345,1.6359,1.6359,1.636]}]]